PROPCUBE 3

Satellite information

Favourite Embed

Satellite Type and Status

PAYLOADIN ORBIT

Key statistics

Satellite PROPCUBE 3 at a glance.

Uptime

3621

Days in orbit

Revolutions

≈ 14.9

Per day

Orbit

LEO

Low Earth Orbit

Inclination

64.8

Latest

Satellite identification and parameters

Extended collection of information and parameters for PROPCUBE 3.

Object identification

Identified? True

Debris? False

Object name: PROPCUBE 3

International designator: 2015-058K

Object number (NORAD): 40973

Object ID (CCSDS): 40973

Country: UNITED STATES OF AMERICA (US)

Current information (Y/N): Y

RCS size: SMALL

Orbital parameters

Period: 96.553 minutes

Inclination: 64.7688 deg

SMA: 6971.701 km

Apoapsis: 694.685 km

Periapsis: 492.448 km

RAAN: 59.1579 deg

Eccentricy: 0.01450417

Argument of periapsis: 169.5638 deg

Mean anomaly: 190.8544 deg

Mean motion: 14.91401604 rev/day

Mean motion (dot): 0.00008462 rev/day2

B* drag term: 0.00070349127 1/REarth

Two-line elements (TLE)

Creation date: Sept. 6, 2025, 2:09 a.m.

Reference frame: TEME

Reference center: EARTH

Epoch: Sept. 5, 2025, 8:50 p.m. UTC

TLE line 0: 0 PROPCUBE 3

TLE line 1: 1 40973U 15058K 25248.86811816 .00008462 00000-0 70349-3 0 9998

TLE line 2: 2 40973 64.7688 59.1579 0145042 169.5638 190.8544 14.91401604 72352

Live tracking on map

Real-time ground track for satellite PROPCUBE 3.

In-orbit conjunctions

There are no conjunctions computed for PROPCUBE 3, at the moment. Check back to stay up to date, as we update our databases every day.

Go to all conjunctions

Associated space launch

Classified payload for the U.S. National Reconnaissance Office.

PROPCUBE 3 was lifted into orbit during the mission ‘Atlas V 401 | NROL-55 (Multipayload mission)’, on board a Atlas V 401 space rocket.

The launch took place on Oct. 8, 2015, 12:49 p.m. from Space Launch Complex 3E.

For more information about the launch, click the button.

Launch to space Atlas V 401 | NROL-55 (Multipayload mission)
Atlas V 401 | NROL-55 (Multipayload mission)

Agency: N/A

Status: Launch Successful

Launch date: Oct. 8, 2015, 12:49 p.m. UTC

Rocket: Atlas V 401

Launch pad: Space Launch Complex 3E

Location: Vandenberg SFB, CA, USA

...

Latest news about this satellite

There are no fresh news available about this satellite. Check back as we update our databases every day.


Newsletter sign-up

Weekly statistics, charts and insights to help you stay on top of the space industry.